Torna al catalogo

STARLINK-4096

AttivoComunicazioniVLEO
NORAD 53160·PAYLOAD·🇺🇸 United States

Lanciato Jul 17, 2022 da Cape Canaveral Space Force Station

Loading…

Prossimi Passaggi (prossime 24 ore)

TLE

AggiornatoSource: CelesTrak SupGP

Epoca: Sep 15, 2026, 02:10 UTC

1 53160C 22083AE  26258.09076389 -.00015047  00000+0 -44467-3 0  2589
2 53160  53.1596  28.6612 0001185  82.9359  61.4767 15.34390602    17

Traccia STARLINK-4096 in tempo reale con AllMySat

Download on the App Store